User: anonymous   Login
Location: Montauk Point State Park
(41.0718°N, 71.8593°W)
Time: 09:29:38
(UTC-04:00)
Language:

Cosmos 1844 - Orbit

View from above orbital plane
View from above orbital plane
View from above satellite
View from above satellite

Ground track
Ground track

The orbit data is extracted from the following two-line orbital elements,

1 17973U 87041A   15145.19513125  .00000169  00000-0  11390-3 0  9993
2 17973 070.8989 062.5860 0031352 180.4676 283.1303 14.13988047446563
Epoch (UTC): 25 May 2015 04:40:59
Eccentricity: 0.0031352
inclination: 70.8989°
perigee height: 823 km
apogee height: 868 km
right ascension of ascending node: 62.5860°
argument of perigee: 180.4676°
revolutions per day: 14.13988047
mean anomaly at epoch: 283.1303°
orbit number at epoch: 44656

The dashed part of the orbit path shows where the satellite is in the earth's shadow,  

DLR